Regional Weather Roundup
Issued by NWS

Home | Current Version | Previous Version | Graphics & Text | Print | Product List | Glossary On
Versions: 1 2 3 4 5 6 7 8 9 10 11 12 13 14 15 16 17 18 19 20 21 22 23 24 25 26 27
000
ASUS45 KBOU 070707
RWRCO

WEATHER ROUNDUP FOR COLORADO
NATIONAL WEATHER SERVICE DENVER/BOULDER CO
1200 AM MST WED DEC 07 2016

NOTE: "FAIR" INDICATES FEW OR NO CLOUDS BELOW 12000 FEET WITH NO
SIGNIFICANT WEATHER AND/OR OBSTRUCTIONS TO VISIBILITY.

COZ001>005-013-030-031-070800-
...NORTHWEST COLORADO...

CITY           SKY/WX    TMP DP  RH WIND       PRES   REMARKS
CRAIG          LGT SNOW  17  12  80 W7        29.84R WCI   8
HAYDEN         FAIR      16  10  79 W9        29.80R WCI   4
MEEKER         CLOUDY    19  16  88 W3        29.83R
MOUNT WERNER   NOT AVBL
STEAMBOAT SPGS CLOUDY    16  13  90 SW6       29.78R WCI   7
WALDEN           N/A     10   5  79 SW3       29.73R
$$

COZ006>008-011-070800-
...WEST CENTRAL VALLEYS...

CITY           SKY/WX    TMP DP  RH WIND       PRES   REMARKS
GRAND JUNCTION LGT SNOW  26  25  96 E5        29.89R FOG     WCI  20
MONTROSE       CLOUDY    25  19  78 NW9       29.87R WCI  15
EAGLE          CLOUDY    21  18  88 CALM      29.80S
RIFLE          LGT SNOW  23  21  92 W8        29.87R FOG     WCI  14
DELTA          NOT AVBL
NUCLA          MOCLDY    28  18  64 NW15      29.89R WCI  17
$$

COZ017>023-064>068-070800-
...SOUTHWEST COLORADO...

CITY           SKY/WX    TMP DP  RH WIND       PRES   REMARKS
DURANGO        FAIR      30  17  58 W12       29.77S WCI  20
CORTEZ         CLOUDY    30  12  47 N14G22    29.83R WCI  19
PAGOSA SPRINGS FAIR      32  17  55 SW14G22   29.76S WCI  22
TELLURIDE      CLOUDY    23  12  62 W9        29.77S WCI  13
WOLF CREEK PAS HVY SNOW  12  12 100 SW25G45   29.70R VSB 1/4 WCI  -8
$$

COZ009-010-012-014-032>034-037-058>063-070800-
...CENTRAL COLORADO...

CITY           SKY/WX    TMP DP  RH WIND       PRES   REMARKS
ASPEN          LGT SNOW  16  13  88 N9        29.75R FOG     WCI   4
BUENA VISTA    FLURRIES  14  11  85 W3        29.66S
COPPER MTN     CLOUDY     5   0  78 MISG      29.61R
BERTHOUD PASS  LGT SNOW  -4 -15  59 NW25G36   29.56R VSB 3/4 WCI -30
COTTONWOOD PAS LGT SNOW  18  12  79 CALM      29.61R
GUNNISON       FLURRIES  23  17  78 SW16      29.71R WCI  10
KREMMLING      CLOUDY    21  16  79 CALM      29.76R
LEADVILLE      LGT SNOW  11   6  81 W16G28    29.65R VSB 3/4 WCI  -6
MONARCH PASS   TSTM      12   9  85 W46       29.65R VSB 1/4 WCI -13
SALIDA         CLOUDY    16  10  77 SE7G20    29.76R WCI   6
SUNLIGHT       CLOUDY     5   1  85 W8        29.73R WCI  -8
WILKERSON PASS SNOW       5   1  85 CALM      29.60F VSB 1/2
$$

COZ069>075-070800-
...SAN LUIS VALLEY/SANGRE DE CRISTO MOUNTAINS...

CITY           SKY/WX    TMP DP  RH WIND       PRES   REMARKS
ALAMOSA        FAIR      26  20  77 SW9       29.69R WCI  17
LA VETA PASS   CLOUDY    21  16  79 N20G49    29.64R WCI   6
SAGUACHE       CLOUDY    19  14  79 CALM      29.68R
$$

COZ035-036-038>040-070800-
...NORTHERN COLORADO FRONT RANGE...

CITY           SKY/WX    TMP DP  RH WIND       PRES   REMARKS
DENVER INTL AP LGT SNOW  17  13  84 E6        29.89R FOG     WCI   9
DMNS CITY PARK   N/A     17  16  94 E13       29.87F WCI   4
AURORA         LGT SNOW  16  14  93 E5        29.88R FOG     WCI   9
FRONT RANGE AP LGT SNOW  19  18  93 E6        29.90R WCI  11
ERIE MUNI ARPT LGT SNOW  19  17  92 E3        29.90F VSB 1
BOULDER MUN AP LGT SNOW  19  18  93 N5        29.90S WCI  13
CENTENNIAL     LGT SNOW  15  12  88 SE5       29.86R VSB 1   WCI   8
BROOMFIELD     LGT SNOW  19  18  93 NE7       29.87F WCI  10
FORT COLLINS   CLOUDY    18  16  93 SE7       29.93S WCI   8
LONGMONT       LGT SNOW  21  18  88 E3        29.93F
$$

COZ041-046-047-076>085-087-088-070800-
...PIKES PEAK/PALMER DIVIDE AND SOUTHERN FOOTHILLS...

CITY           SKY/WX    TMP DP  RH WIND       PRES   REMARKS
COLO. SPRINGS  MOCLDY    15   3  59 N16       29.82R WCI  -1
A. F. ACADEMY  FLURRIES  13   8  81 N8        29.80R WCI   2
SCHRIEVER AFB  NOT AVBL
ELLICOTT       LGT RAIN N/A N/A N/A E16         N/A
FALCON         CLOUDY    12   3  67 N8        29.79R WCI   0
FORT CARSON    CLOUDY    17   2  52 N10       29.80R WCI   5
LIMON          MOCLDY    16  11  80 NE12      29.85S WCI   3
MONUMENT HILL  LGT SNOW  10   7  85 NE5       29.81R WCI   2
TRINIDAD       FAIR      17   2  51 E7        29.74F WCI   8
$$

COZ042>045-048>051-090-091-070800-
...NORTHEAST COLORADO...

CITY           SKY/WX    TMP DP  RH WIND       PRES   REMARKS
GREELEY ARPT   LGT SNOW  19  16  88 E9        29.95F FOG     WCI   8
AKRON          LGT SNOW  18  15  88 E9        29.92F FOG     WCI   7
BURLINGTON     CLOUDY    24   0  35 E10       29.92F WCI  14
WRAY           NOT AVBL
STERLING       CLOUDY    21  18  86 NE9       29.97S WCI  11
HOLYOKE        FAIR      25  19  80 NE6       30.03R WCI  18
FORT MORGAN    LGT SNOW  20  16  86 NE7       29.96R WCI  11
$$

COZ086-089-092>099-070800-
...SOUTHEAST COLORADO...

CITY           SKY/WX    TMP DP  RH WIND       PRES   REMARKS
PUEBLO         MOCLDY    19   0  43 N10       29.83S WCI   7
LA JUNTA       FAIR      16   3  56 S7        29.82S WCI   6
LAMAR          FAIR      18   2  49 SE16      29.86F WCI   3
SPRINGFIELD      N/A     15   5  64 SE8       29.84S WCI   4
$$




USA.gov is the U.S. government's official web portal to all federal, state and local government web resources and services.